New Richmond, WI

4:11 AM CDT on August 23, 2017 (GMT -0500)
New Richmond Municipal

Weather History for KRNH - April, 2014

Change the Weather History Date:

Thursday, April 10, 2014

  Actual Average (KSTP) Record (KSTP)
Temperature  
Mean Temperature 48 °F -  
Max Temperature 57 °F 55 °F 78 °F (2006)
Min Temperature 39 °F 35 °F 28 °F (2004)
Degree Days  
Heating Degree Days 17    
Moisture  
Dew Point 28 °F    
Average Humidity 47    
Maximum Humidity 73    
Minimum Humidity 23    
Precipitation  
Precipitation 0.00 in - - ()
Sea Level Pressure  
Sea Level Pressure 29.76 in    
Wind  
Wind Speed 12 mph (WNW)    
Max Wind Speed 29 mph    
Max Gust Speed 37 mph    
Visibility 10 miles    
Events Rain    
Averages and records for this station are not official NWS values.
T = Trace of Precipitation, MM = Missing Value Source: NWS Daily Summary

Daily Weather History Graph

Daily Weather History Graph

Search for Another Location

Airport or City:

Trip Planner

Search our weather history database for the weather conditions in past years. The results will help you decide how hot, cold, wet, or windy it might be!

Date:

Astronomy

Apr. 10, 2014 Rise Set
Actual Time 6:34 AM CDT 7:49 PM CDT
Civil Twilight 6:03 AM CDT 8:19 PM CDT
Nautical Twilight 5:27 AM CDT 8:56 PM CDT
Astronomical Twilight 4:48 AM CDT 9:35 PM CDT
Moon 3:22 PM CDT (4/10) 4:09 AM CDT (4/10)
Length of Visible Light 14h 16m
Length of Day
13h 15m
Waxing Gibbous, 80% of the Moon is Illuminated
Apr 10
Waxing Gibbous
Apr 15
Full
Apr 22
Last Quarter
Apr 29
New
May 6
First Quarter

Hourly Weather History & Observations

Time (CDT) Temp. Windchill Dew Point Humidity Pressure Visibility Wind Dir Wind Speed Gust Speed Precip Events Conditions
12:15 AM 53.4 °F - 40.5 °F 61% 29.50 in 10.0 mi SW 9.2 mph - N/A   Scattered Clouds
12:35 AM 53.8 °F - 40.3 °F 60% 29.51 in 10.0 mi WSW 10.4 mph - N/A   Scattered Clouds
12:55 AM 53.8 °F - 40.6 °F 61% 29.52 in 10.0 mi WSW 10.4 mph - N/A   Overcast
1:15 AM 56.1 °F - 41.2 °F 57% 29.54 in 10.0 mi West 10.4 mph - N/A   Overcast
1:35 AM 55.8 °F - 42.3 °F 60% 29.55 in 10.0 mi NW 12.7 mph - N/A   Overcast
1:55 AM 55.8 °F - 42.4 °F 61% 29.59 in 10.0 mi NNW 13.8 mph - N/A Rain Light Rain
2:15 AM 53.4 °F - 39.6 °F 59% 29.61 in 10.0 mi NNW 17.3 mph 26.5 mph N/A   Overcast
2:35 AM 51.8 °F - 39.4 °F 63% 29.62 in 10.0 mi NNW 15.0 mph 24.2 mph N/A Rain Rain
2:55 AM 49.5 °F - 39.2 °F 68% 29.64 in 10.0 mi NNW 20.7 mph 27.6 mph N/A   Light Drizzle
3:15 AM 48.4 °F - 37.8 °F 67% 29.62 in 10.0 mi NNW 12.7 mph - N/A   Scattered Clouds
3:35 AM 47.1 °F - 37.8 °F 70% 29.63 in 10.0 mi NNW 15.0 mph - N/A   Scattered Clouds
3:55 AM 47.5 °F - 36.7 °F 66% 29.66 in 10.0 mi NNW 13.8 mph 18.4 mph N/A Rain Light Rain
4:15 AM 45.7 °F 41.5 °F 37.6 °F 73% 29.63 in 10.0 mi NNW 8.1 mph - N/A Rain Light Rain
4:35 AM 45.3 °F 44.0 °F 36.7 °F 72% 29.63 in 10.0 mi NNW 3.5 mph 19.6 mph N/A Rain Light Rain
4:55 AM 44.8 °F 42.4 °F 36.5 °F 73% 29.65 in 10.0 mi NW 4.6 mph - N/A   Overcast
5:15 AM 44.6 °F 42.2 °F 36.1 °F 72% 29.66 in 10.0 mi West 4.6 mph - N/A   Overcast
5:35 AM 43.7 °F 40.3 °F 35.6 °F 73% 29.68 in 10.0 mi West 5.8 mph - N/A   Mostly Cloudy
5:55 AM 43.9 °F 39.9 °F 34.7 °F 70% 29.68 in 10.0 mi WNW 6.9 mph - N/A   Clear
6:15 AM 43.5 °F 38.9 °F 33.3 °F 67% 29.69 in 10.0 mi WNW 8.1 mph - N/A   Clear
6:35 AM 43.2 °F 39.7 °F 32.0 °F 65% 29.69 in 10.0 mi NW 5.8 mph - N/A   Clear
6:55 AM 43.3 °F 39.2 °F 31.1 °F 62% 29.70 in 10.0 mi WNW 6.9 mph - N/A   Clear
7:15 AM 42.1 °F 38.4 °F 30.2 °F 63% 29.70 in 10.0 mi WNW 5.8 mph - N/A   Clear
7:35 AM 43.3 °F 39.2 °F 31.3 °F 62% 29.72 in 10.0 mi West 6.9 mph - N/A   Clear
7:55 AM 45.5 °F 40.3 °F 31.5 °F 58% 29.72 in 10.0 mi WNW 10.4 mph - N/A   Clear
8:15 AM 46.2 °F 40.5 °F 30.9 °F 55% 29.72 in 10.0 mi West 12.7 mph - N/A   Clear
8:35 AM 47.7 °F - 30.9 °F 52% 29.73 in 10.0 mi West 11.5 mph - N/A   Clear
8:55 AM 48.7 °F - 30.6 °F 50% 29.74 in 10.0 mi West 11.5 mph - N/A   Clear
9:15 AM 48.9 °F - 30.2 °F 48% 29.74 in 10.0 mi West 15.0 mph - N/A   Clear
9:55 AM 51.4 °F - 28.8 °F 42% 29.74 in 10.0 mi WNW 17.3 mph 24.2 mph N/A   Clear
10:15 AM 52.2 °F - 28.0 °F 39% 29.74 in 10.0 mi West 19.6 mph 28.8 mph N/A   Clear
10:35 AM 52.9 °F - 26.2 °F 36% 29.75 in 10.0 mi WNW 18.4 mph 28.8 mph N/A   Clear
10:55 AM 54.3 °F - 25.0 °F 32% 29.75 in 10.0 mi NW 27.6 mph 34.5 mph N/A   Clear
11:15 AM 54.3 °F - 24.4 °F 31% 29.76 in 10.0 mi West 24.2 mph 35.7 mph N/A   Clear
11:35 AM 54.7 °F - 21.6 °F 28% 29.76 in 10.0 mi WNW 26.5 mph 34.5 mph N/A   Clear
11:55 AM 55.2 °F - 21.4 °F 27% 29.76 in 10.0 mi WNW 23.0 mph 35.7 mph N/A   Clear
12:15 PM 55.8 °F - 21.7 °F 27% 29.77 in 10.0 mi WNW 28.8 mph 36.8 mph N/A   Clear
12:35 PM 55.8 °F - 21.7 °F 27% 29.77 in 10.0 mi WNW 24.2 mph 35.7 mph N/A   Clear
12:55 PM 56.1 °F - 22.6 °F 27% 29.77 in 10.0 mi WNW 24.2 mph 35.7 mph N/A   Clear
1:15 PM 56.7 °F - 22.5 °F 27% 29.78 in 10.0 mi NW 19.6 mph 35.7 mph N/A   Clear
1:35 PM 56.5 °F - 21.4 °F 26% 29.78 in 10.0 mi NW 23.0 mph 35.7 mph N/A   Clear
2:15 PM 56.8 °F - 19.8 °F 24% 29.80 in 10.0 mi WNW 26.5 mph 33.4 mph N/A   Clear
2:35 PM 56.5 °F - 20.7 °F 25% 29.80 in 10.0 mi NW 20.7 mph 33.4 mph N/A   Clear
3:15 PM 57.0 °F - 20.5 °F 24% 29.81 in 10.0 mi NW 20.7 mph 28.8 mph N/A   Clear
3:35 PM 57.2 °F - 22.8 °F 27% 29.81 in 10.0 mi NW 17.3 mph 25.3 mph N/A   Clear
3:55 PM 57.0 °F - 19.2 °F 23% 29.81 in 10.0 mi WNW 19.6 mph 29.9 mph N/A   Clear
4:15 PM 57.2 °F - 19.6 °F 23% 29.81 in 10.0 mi NW 18.4 mph 27.6 mph N/A   Clear
4:35 PM 56.5 °F - 21.6 °F 26% 29.82 in 10.0 mi NW 18.4 mph 25.3 mph N/A   Clear
4:55 PM 57.0 °F - 21.0 °F 25% 29.82 in 10.0 mi NW 21.9 mph 28.8 mph N/A   Clear
5:15 PM 56.3 °F - 23.5 °F 28% 29.83 in 10.0 mi NW 13.8 mph 26.5 mph N/A   Clear
5:35 PM 56.3 °F - 21.6 °F 26% 29.83 in 10.0 mi WNW 16.1 mph 23.0 mph N/A   Clear
5:55 PM 56.3 °F - 23.2 °F 28% 29.84 in 10.0 mi WNW 15.0 mph - N/A   Clear
6:15 PM 55.2 °F - 22.1 °F 28% 29.84 in 10.0 mi WNW 13.8 mph 21.9 mph N/A   Clear
6:35 PM 53.8 °F - 22.1 °F 29% 29.85 in 10.0 mi WNW 11.5 mph 19.6 mph N/A   Clear
6:55 PM 53.8 °F - 23.2 °F 30% 29.85 in 10.0 mi WNW 10.4 mph - N/A   Clear
7:15 PM 53.2 °F - 22.1 °F 30% 29.85 in 10.0 mi WNW 12.7 mph 18.4 mph N/A   Clear
7:35 PM 51.3 °F - 23.4 °F 34% 29.85 in 10.0 mi West 9.2 mph - N/A   Clear
7:55 PM 49.1 °F - 23.9 °F 37% 29.86 in 10.0 mi West 8.1 mph - N/A   Clear
8:15 PM 47.5 °F - 22.6 °F 38% 29.87 in 10.0 mi West 5.8 mph - N/A   Clear
8:35 PM 44.4 °F 41.2 °F 26.1 °F 49% 29.88 in 10.0 mi WSW 5.8 mph - N/A   Clear
8:55 PM 44.4 °F 42.0 °F 24.4 °F 45% 29.89 in 10.0 mi West 4.6 mph - N/A   Clear
9:15 PM 44.8 °F 42.4 °F 23.5 °F 43% 29.90 in 10.0 mi West 4.6 mph - N/A   Clear
9:35 PM 44.1 °F 41.5 °F 23.5 °F 44% 29.91 in 10.0 mi West 4.6 mph - N/A   Clear
9:55 PM 43.0 °F 39.5 °F 25.3 °F 50% 29.92 in 10.0 mi WSW 5.8 mph - N/A   Clear
10:15 PM 42.1 °F 39.2 °F 25.9 °F 53% 29.92 in 10.0 mi WSW 4.6 mph - N/A   Clear
10:35 PM 41.9 °F 38.2 °F 25.3 °F 52% 29.93 in 10.0 mi WSW 5.8 mph - N/A   Clear
10:55 PM 39.2 °F 35.0 °F 25.9 °F 59% 29.93 in 10.0 mi WSW 5.8 mph - N/A   Clear
11:15 PM 39.6 °F 35.4 °F 25.7 °F 58% 29.93 in 10.0 mi WSW 5.8 mph - N/A   Clear
11:35 PM 40.1 °F 36.9 °F 25.5 °F 56% 29.93 in 10.0 mi SSW 4.6 mph - N/A   Clear
11:55 PM 39.2 °F 37.0 °F 25.5 °F 58% 29.93 in 10.0 mi SW 3.5 mph - N/A   Clear